This demonstration page uses our WeatherBlox Daily Observations layout. Learn more.

Left ArrowRight Arrow

Hourly Observations for October 8, 2015

Temp ( °F °C ) Dew Point ( °F °C ) Humidity (%) Winds ( mph kmh ) Pressure ( in mb ) Visibility ( mi km ) Precip ( " mm )
12:51 am 00:51 Clear 55 12.8 53 11.7 93 93 SSE 9 15 29.97 1015 10 16 0.00 0.00
1:51 am 01:51 Clear 54 12.2 52 11.1 93 93 ENE 3 6 29.97 1015 10 16 0.00 0.00
2:51 am 02:51 Clear 53 11.7 51 10.6 93 93 ESE 3 6 29.97 1015 10 16 0.00 0.00
3:51 am 03:51 Clear 52 11.1 51 10.6 97 97 SE 6 9 29.97 1015 10 16 0.00 0.00
4:51 am 04:51 Clear 52 11.1 51 10.6 97 97 NE 3 6 29.98 1015 10 16 0.00 0.00
5:51 am 05:51 undefined N/A N/A N/A undefined N/A N/A N/A 0.00 0.00
6:51 am 06:51 undefined 52 11.1 50 10 93 93 Calm 30.01 1016 10 16 0.00 0.00
7:51 am 07:51 Sunny 57 13.9 53 11.7 87 87 SE 5 7 30.01 1016 10 16 0.00 0.00
8:51 am 08:51 Sunny 62 16.7 52 11.1 70 70 SE 6 9 30.01 1016 10 16 0.00 0.00
9:51 am 09:51 Sunny 66 18.9 52 11.1 61 61 VRB 6 9 30.01 1016 10 16 0.00 0.00
10:51 am 10:51 Sunny 71 21.7 51 10.6 49 49 SE 7 11 29.99 1016 10 16 0.00 0.00
11:51 am 11:51 undefined 75 23.9 46 7.8 36 36 SSE 8 13 29.97 1015 10 16 0.00 0.00
12:51 pm 12:51 Sunny 78 25.6 47 8.3 33 33 SSW 9 15 29.93 1013 10 16 0.00 0.00
1:51 pm 13:51 Sunny 79 26.1 46 7.8 31 31 W 7 11 29.89 1012 10 16 0.00 0.00
2:51 pm 14:51 Sunny 80 26.7 46 7.8 30 30 SE 5 7 29.86 1011 10 16 0.00 0.00
3:51 pm 15:51 Sunny 80 26.7 46 7.8 30 30 SSW 6 9 29.86 1011 10 16 0.00 0.00
4:51 pm 16:51 Sunny 79 26.1 45 7.2 30 30 WNW 5 7 29.87 1011 10 16 0.00 0.00
5:51 pm 17:51 Partly Cloudy 77 25 46 7.8 33 33 NW 8 13 29.80 1009 10 16 0.00 0.00
6:51 pm 18:51 Clear 71 21.7 48 8.9 44 44 SE 7 11 29.92 1013 10 16 0.00 0.00
7:51 pm 19:51 Mostly Clear 69 20.6 50 10 51 51 Calm 29.95 1014 10 16 0.00 0.00
8:51 pm 20:51 Mostly Clear 69 20.6 51 10.6 53 53 Calm 29.96 1015 10 16 0.00 0.00
9:51 pm 21:51 Mostly Clear 67 19.4 52 11.1 59 59 SE 7 11 29.96 1015 10 16 0.00 0.00
10:51 pm 22:51 Clear 63 17.2 53 11.7 70 70 ENE 5 7 29.97 1015 10 16 0.00 0.00
11:51 pm 23:51 Cloudy 66 18.9 53 11.7 63 63 E 6 9 29.97 1015 10 16 0.00 0.00

Powered by AerisWeather